Showing default

CHUANG XIN 26 (CX-26), 69972

Orbit data source: Space-Track

CHUANG XIN 26 (CX-26), 69972 is a payload satellite owned by CNSA (CN) in LEO that was launched on Fri, 10 Jul 2026 UTC via a CHANG ZHENG 10B launch vehicle from the Wenchang Satellite Launch Center (WSC). Payload-class satellites include a variety of spacecraft equipped with specific instruments for various scientific and technological missions. These include communications satellites like Starlink; space stations such as the ISS; scientific satellites like the Hubble; Earth observation satellites from companies like Planet Labs, Umbra, and HawkEye 360; GPS; miniature CubeSats for education and research; and military/defense satellites.

Loading next visibility...
Identifier
69972, 2026-158A
Orbit
LEO
Country
Flag of CNCN / PRC
Related business
Manufacturer
SECM
Mission
Operational spacecraft
Bus & Motor
Unknown
Mass
~10,000 kg wet, ~10,000 kg dry
Launch date (UTC)
2026-07-10 (1 month ago)
Launch vehicle
CHANG ZHENG 10B
Launch site
Wenchang Satellite Launch Center (WSC)
Object type
Payload
Rocket body
Debris
Shape & HBR
BOX + 2 PAN, 14.5 m
Radar Cross Section
Large (>1 m²)

Expand to show TLE details & history
Last TLE update: 22 hours ago

TLE from 22 hours ago
0 CHUANG XIN 26 (CX-26)
1 69972U 26158A   26228.17287097  .00000076  00000-0  99932-4 0  9995
2 69972  49.9832 145.4609 0005064  52.2517 307.8855 14.25121534  5263
Epoch: 2026-08-16T04:08Z
TLE epoch observation values (Epoch: 2026-08-16T04:08:56.051Z)
Latitude
Longitude
118.65416°
Altitude
806.379 km
Speed
7.453 km/s
True Right ascension
09h 41m 50s
True Declination
0° 00' 00"
Sunlit
Object was in daylight at epoch
Visualization orbit readout
Latitude
Unknown
Longitude
Unknown
Altitude
Unknown
Speed
Unknown
Apparent Right ascension
Unknown
Apparent Declination
Unknown
Sunlit
N/A
Visualization observer readout
Local Sidereal Time
16:49:54
Azimuth
Unknown
Elevation
Unknown
Doppler factor
Unknown
Orbital elements
Apogee altitude
812.465 km
Perigee altitude
805.186 km
Semi-major axis
7,186.962 km
Eccentricity
0.00051
Inclination
49.9832°
RAAN
145.4609°
Arg. of periapsis
52.2517°
True anomaly
307.83968°
Mean anomaly
307.8855°
Eccentric anomaly
307.86259°
Mean motion
3.56226 °/min
Orbital period
101.06 mins
BSTAR
0.000099932
Loading maneuver chart data...
Computing Atmospheric mass density...
Loading historical data...
Loading historical data...
Loading historical data...
Loading historical data...
Loading historical data...
Loading historical data...
Loading historical data...
Other satellites on launch #158 in the year 2026 (2026-07-10 UTC)

Documentation

Showing up to 5 results
|